Retour au catalogue

STARLINK-4311

ActifCommunicationsSSO
NORAD 53062·PAYLOAD·🇺🇸 United States

Lancé Jul 11, 2022 depuis Vandenberg Space Force Base

Loading…

Prochains Passages (prochaines 24 heures)

TLE

FraisSource: CelesTrak SupGP

Époque: Sep 15, 2026, 02:40 UTC

1 53062C 22077V   26258.11159722 -.00057445  00000+0 -17831-2 0  2581
2 53062  97.2857  72.9928 0001588  92.7360 303.8642 15.33470655    18

Suivez STARLINK-4311 en temps réel avec AllMySat

Download on the App Store